"Pseudo-MPEC" for GG0415

Created 2023 Sep 27 0:22:11 UT using Find_Orb

Click here for an explanation of pseudo-MPECs

 
 Astrometry: 
     GG0415 *MC2023 09 18@lM#52g\2Oljg9Cf`^d*I8*:e3v!s:9-kv#]Yif%4TrW@Xo^=rwGQ62
     GG0415  MC2023 09 182ZbqS#5F0,]y?'fE;t=LnPARmn)nFNi=\lS(V3EKx\R[m8R?`(:9Q62

Station data:
(Q62) iTelescope Observatory, Siding Spring  (S31.273286 E149.064420)
   Australia/NSW.  Observers H. Sato, T. Prystavski, M. Mattiazzo, A. Pearce,
   F. D. Romanov. 0.51-m f/6.8 astrograph + CCD + f/4.5 focal reducer0.43-m
   f/6.8 astrograph + CCD + focal reducer0.43-m f/6.8 astrograph + CCD0.10-m
   f/5 astrograph + CCD0.127-m f/5.6 refractor + CCD0.50-m f/6.8 reflector +
   CCD0.30-m f/9 reflector + CCD.

Orbital elements:  GG0415
   Perihelion 2023 May 18.79960 +/- 227 TT = 19:11:25 (JD 2460083.29960)
Epoch 2023 Sep 18.0 TT = JDT 2460205.5   Earth MOID: 0.0296   Me: 0.0762
M  13.86267772 +/- 80               Ma: 0.0729                   AutoNEOCP
n   0.11344215 +/- 0.183            Peri.   68.24834 +/- 42
a   4.22622931 +/- 4.53             Node   147.19611 +/- 70
e   0.9103127 +/- 0.259             Incl.   31.00862 +/- 60
P   8.69                   H 16.53  G  0.15   U 11.6  SR
q 0.37903906 +/- 0.867    Q 8.07341956 +/- 23.2           (J2000 ecliptic)
From 2 observations 2023 Sept. 18 (15.5 min); mean residual 0".01
Residuals in arcseconds: 
230918 Q62  .01-  .00     230918 Q62  .01-  .00     

Ephemerides (geocentric):
Date (UTC) HH   RA             Dec           delta  r     elong  mag " sig PA
---- --------  ------------   ------------  ------ ------ -----  --- --------
2023 09 27 00  23 29 49.057   -28 22 26.60  1.3925 2.3082 148.6 19.8 740'  75
2023 09 27 01  23 29 45.257   -28 22 42.17  1.3932 2.3087 148.6 19.8 772'  74
2023 09 27 02  23 29 41.461   -28 22 57.68  1.3940 2.3092 148.5 19.8 798'  73
2023 09 27 03  23 29 37.670   -28 23 13.14  1.3947 2.3097 148.5 19.8 820'  73
2023 09 27 04  23 29 33.884   -28 23 28.54  1.3954 2.3102 148.5 19.8 837'  72
2023 09 27 05  23 29 30.102   -28 23 43.88  1.3962 2.3107 148.4 19.8 852'  72
2023 09 27 06  23 29 26.325   -28 23 59.17  1.3969 2.3112 148.4 19.8 865'  72
2023 09 27 07  23 29 22.553   -28 24 14.40  1.3976 2.3117 148.4 19.8 876'  72
2023 09 27 08  23 29 18.785   -28 24 29.58  1.3984 2.3122 148.3 19.8 885'  71
2023 09 27 09  23 29 15.022   -28 24 44.69  1.3991 2.3127 148.3 19.8 893'  71
2023 09 27 10  23 29 11.264   -28 24 59.76  1.3998 2.3132 148.3 19.9 900'  71
2023 09 27 11  23 29 07.510   -28 25 14.76  1.4006 2.3137 148.2 19.9 907'  71
2023 09 27 12  23 29 03.761   -28 25 29.71  1.4013 2.3142 148.2 19.9 912'  71
2023 09 27 13  23 29 00.017   -28 25 44.61  1.4020 2.3147 148.1 19.9 917'  71
2023 09 27 14  23 28 56.277   -28 25 59.45  1.4028 2.3152 148.1 19.9 922'  71
2023 09 27 15  23 28 52.542   -28 26 14.23  1.4035 2.3157 148.1 19.9 926'  71
2023 09 27 16  23 28 48.812   -28 26 28.96  1.4043 2.3163 148.0 19.9 930'  71
2023 09 27 17  23 28 45.087   -28 26 43.63  1.4050 2.3168 148.0 19.9 933'  71
2023 09 27 18  23 28 41.366   -28 26 58.25  1.4057 2.3173 148.0 19.9 936'  71
2023 09 27 19  23 28 37.649   -28 27 12.81  1.4065 2.3178 147.9 19.9 939'  71
2023 09 27 20  23 28 33.938   -28 27 27.31  1.4072 2.3183 147.9 19.9 942'  71
2023 09 27 21  23 28 30.231   -28 27 41.76  1.4080 2.3188 147.9 19.9 944'  71
2023 09 27 22  23 28 26.529   -28 27 56.16  1.4087 2.3193 147.8 19.9 946'  71
2023 09 27 23  23 28 22.831   -28 28 10.50  1.4094 2.3198 147.8 19.9 948'  71
2023 09 28 00  23 28 19.139   -28 28 24.78  1.4102 2.3203 147.7 19.9 950'  71
2023 09 28 01  23 28 15.450   -28 28 39.01  1.4109 2.3208 147.7 19.9 952'  71
2023 09 28 02  23 28 11.767   -28 28 53.19  1.4117 2.3213 147.7 19.9 954'  71
2023 09 28 03  23 28 08.088   -28 29 07.31  1.4124 2.3218 147.6 19.9 956'  71
2023 09 28 04  23 28 04.414   -28 29 21.38  1.4132 2.3223 147.6 19.9 957'  71
2023 09 28 05  23 28 00.745   -28 29 35.39  1.4139 2.3228 147.6 19.9 959'  71
2023 09 28 06  23 27 57.080   -28 29 49.34  1.4146 2.3233 147.5 19.9 960'  71
2023 09 28 07  23 27 53.420   -28 30 03.25  1.4154 2.3238 147.5 19.9 961'  71
2023 09 28 08  23 27 49.765   -28 30 17.09  1.4161 2.3243 147.5 19.9 963'  71
2023 09 28 09  23 27 46.114   -28 30 30.89  1.4169 2.3248 147.4 19.9 964'  71
2023 09 28 10  23 27 42.468   -28 30 44.63  1.4176 2.3253 147.4 19.9 965'  71
2023 09 28 11  23 27 38.827   -28 30 58.31  1.4184 2.3258 147.3 19.9 966'  71
2023 09 28 12  23 27 35.190   -28 31 11.94  1.4191 2.3263 147.3 19.9 967'  71
2023 09 28 13  23 27 31.558   -28 31 25.52  1.4199 2.3268 147.3 19.9 968'  71
2023 09 28 14  23 27 27.931   -28 31 39.04  1.4206 2.3273 147.2 19.9 969'  71
2023 09 28 15  23 27 24.309   -28 31 52.51  1.4214 2.3278 147.2 19.9 970'  71
2023 09 28 16  23 27 20.691   -28 32 05.92  1.4221 2.3283 147.2 19.9 971'  71
2023 09 28 17  23 27 17.078   -28 32 19.29  1.4229 2.3288 147.1 19.9 972'  71
2023 09 28 18  23 27 13.469   -28 32 32.59  1.4236 2.3293 147.1 19.9 973'  71
2023 09 28 19  23 27 09.865   -28 32 45.85  1.4244 2.3298 147.0 19.9 974'  71
2023 09 28 20  23 27 06.266   -28 32 59.05  1.4251 2.3303 147.0 19.9 975'  71
2023 09 28 21  23 27 02.672   -28 33 12.19  1.4259 2.3308 147.0 19.9 975'  71
2023 09 28 22  23 26 59.082   -28 33 25.29  1.4266 2.3313 146.9 19.9 976'  71
2023 09 28 23  23 26 55.497   -28 33 38.33  1.4274 2.3318 146.9 19.9 977'  71